GW2457 Weather Reports


time (UTC)temp
F
wind
direction
speed
knots
gust
knots
rain 1hr
in
rain 24hr
in
rain mn
in
humidity
%
barometer
mb
20260506001606 58 157 1.7 5.2 0.00 0.02 0.02 52 1011.0
20260506000122 58 76 0.9 5.2 0.00 0.02 0.02 51 1011.0
20260505234601 61 340 0.9 2.6 0.00 0.02 0.02 46 1010.9
20260505233056 60 73 1.7 3.5 0.00 0.02 0.02 50 1010.9
20260505231559 60 265 1.7 4.3 0.00 0.02 0.02 51 1011.3
20260505230058 57 193 0.0 6.1 0.00 0.02 0.02 53 1011.3
20260505224555 56 69 3.5 9.6 0.02 0.02 0.02 63 1011.3
20260505223059 56 101 2.6 7.8 0.02 0.02 0.02 67 1011.6
20260505221601 56 222 2.6 10.4 0.02 0.02 0.02 63 1011.7
20260505220107 55 304 0.9 7.8 0.02 0.02 0.02 66 1012.2
20260505214605 58 225 2.6 7.0 0.00 0.00 0.00 55 1012.0
20260505213056 59 244 2.6 4.3 0.00 0.00 0.00 48 1011.9
20260505211631 58 260 2.6 7.0 0.00 0.00 0.00 50 1012.1
20260505210055 59 230 3.5 6.1 0.00 0.00 0.00 51 1012.0
20260505204605 58 0 1.7 7.8 0.00 0.00 0.00 52 1012.1
20260505203058 58 236 1.7 9.6 0.00 0.00 0.00 53 1012.5
20260505201555 57 138 1.7 6.1 0.00 0.00 0.00 57 1012.4
20260505200055 56 347 1.7 6.1 0.00 0.00 0.00 58 1012.9
20260505194554 56 192 1.7 6.1 0.00 0.00 0.00 61 1012.9
20260505193056 56 142 1.7 5.2 0.00 0.00 0.00 62 1013.0
20260505191604 54 202 1.7 7.8 0.00 0.00 0.00 69 1013.2
20260505190114 54 227 1.7 7.8 0.00 0.00 0.00 69 1013.1
20260505184557 56 201 4.3 10.4 0.00 0.00 0.00 63 1013.3
20260505183054 58 168 2.6 10.4 0.00 0.00 0.00 53 1012.9
20260505181640 60 242 1.7 9.6 0.00 0.00 0.00 48 1012.9
20260505180105 62 285 1.7 7.0 0.00 0.00 0.00 43 1012.7
20260505174556 60 232 2.6 5.2 0.00 0.00 0.00 47 1012.7
20260505173055 57 10 1.7 7.0 0.00 0.00 0.00 47 1012.8
20260505171601 56 47 2.6 7.0 0.00 0.00 0.00 47 1013.0
20260505170057 55 233 1.7 5.2 0.00 0.00 0.00 49 1013.4
20260505164558 54 256 1.7 5.2 0.00 0.00 0.00 51 1012.9
20260505163058 53 305 3.5 7.8 0.00 0.00 0.00 53 1013.3
20260505161557 51 331 3.5 9.6 0.00 0.00 0.00 57 1013.6
20260505153058 52 309 5.2 11.3 0.00 0.00 0.00 59 1014.0
20260505151602 52 336 5.2 8.7 0.00 0.00 0.00 60 1014.2
20260505124554 55 0 0.0 0.0 0.00 0.00 0.00 45 1013.1
20260505123058 55 0 0.9 2.6 0.00 0.00 0.00 45 1013.4
20260505121559 54 0 0.0 0.0 0.00 0.00 0.00 44 1013.5
20260505120117 54 270 0.0 1.7 0.00 0.00 0.00 42 1013.3
20260505114558 54 0 0.0 0.0 0.00 0.00 0.00 42 1013.1
20260505113056 54 0 0.0 1.7 0.00 0.00 0.00 41 1013.0
20260505111557 54 0 0.9 3.5 0.00 0.00 0.00 40 1012.9
20260505110111 55 241 0.9 2.6 0.00 0.00 0.00 39 1013.2
20260505101602 56 0 0.0 1.7 0.00 0.00 0.00 36 1012.9
20260505100056 56 348 0.9 2.6 0.00 0.00 0.00 35 1012.8
20260505094554 57 281 0.0 1.7 0.00 0.00 0.00 34 1012.8
20260505093056 56 0 0.9 2.6 0.00 0.00 0.00 35 1012.8
20260505091559 57 0 0.9 3.5 0.00 0.00 0.00 36 1013.1
20260505090100 57 49 1.7 3.5 0.00 0.00 0.00 35 1013.3
20260505084603 57 277 2.6 6.1 0.00 0.00 0.00 35 1013.4
20260505083109 58 0 0.0 1.7 0.00 0.00 0.00 36 1013.8
20260505081556 58 301 0.0 2.6 0.00 0.00 0.00 35 1013.7
20260505080104 58 0 0.0 3.5 0.00 0.00 0.00 35 1013.7
20260505074556 59 267 3.5 7.8 0.00 0.00 0.00 34 1013.8
20260505073101 59 306 1.7 6.1 0.00 0.00 0.00 33 1014.0
20260505071556 60 224 0.9 3.5 0.00 0.00 0.00 32 1013.9
20260505070100 60 245 1.7 3.5 0.00 0.00 0.00 31 1013.7
20260505064639 60 0 0.0 6.1 0.00 0.00 0.00 30 1013.4
20260505063058 61 269 0.9 6.1 0.00 0.00 0.00 29 1013.3
20260505061555 61 255 0.9 3.5 0.00 0.00 0.00 29 1013.6
20260505060101 62 214 1.7 9.6 0.00 0.00 0.00 28 1013.4
20260505054602 62 256 3.5 11.3 0.00 0.00 0.00 27 1013.3
20260505053100 62 274 1.7 6.1 0.00 0.00 0.00 27 1013.2
20260505051558 63 192 1.7 7.8 0.00 0.00 0.00 27 1013.2
20260505050106 62 242 0.9 3.5 0.00 0.00 0.00 28 1013.1
20260505041604 64 0 0.0 4.3 0.00 0.00 0.00 27 1013.2
20260505034610 65 242 0.9 3.5 0.00 0.00 0.00 25 1013.1
20260505033058 65 320 0.9 3.5 0.00 0.00 0.00 25 1012.9
20260505031558 66 309 3.5 10.4 0.00 0.00 0.00 24 1012.8
20260505030104 66 284 2.6 7.8 0.00 0.00 0.00 24 1012.7
20260505024610 67 274 3.5 10.4 0.00 0.00 0.00 23 1012.4
20260505023056 67 59 6.1 10.4 0.00 0.00 0.00 22 1012.2
20260505021555 68 250 4.3 11.3 0.00 0.00 0.00 22 1012.0
20260505020106 68 258 2.6 9.6 0.00 0.00 0.00 22 1011.8
20260505014553 68 309 2.6 10.4 0.00 0.00 0.00 22 1011.7
20260505013053 69 28 3.5 10.4 0.00 0.00 0.00 21 1011.4
20260505011557 69 9 3.5 8.7 0.00 0.00 0.00 20 1011.3
20260505010110 69 286 5.2 12.2 0.00 0.00 0.00 19 1011.4
20260505004620 70 292 4.3 9.6 0.00 0.00 0.00 19 1011.4
20260505003059 70 313 4.3 11.3 0.00 0.00 0.00 18 1011.4